Location: Deneb Observatory
(47.2267°N, 100.4953°W)
Time: 14:21:19
(UTC-05:00)

Amateur Radio Satellites - All Passes

Search period start: 18 April 2015 13:51
Search period end: 19 April 2015 13:51
Location: Deneb Observatory, 47.2267°N, 100.4953°W

Satellite Date Start Highest point End Downlink Frequencies (MHz)
Time Altitude Azimuth
ITAMSAT 1 18 Apr 13:58:40 14:02:45 25° 62° (ENE) 14:06:57 435.822/435.867
SPROUT 18 Apr 13:59:15 14:03:34 68° 102° (ESE) 14:07:53 437.525
TISAT 1 18 Apr 14:00:09 14:04:19 55° 100° (E) 14:08:29 437.305
BEESAT 18 Apr 14:02:14 14:03:19 11° 85° (E) 14:04:41 436.000
SWISSCUBE 18 Apr 14:02:45 14:04:30 12° 86° (E) 14:06:30 437.505
Cosmos 2491 18 Apr 14:02:59 14:08:45 19° 284° (WNW) 14:14:06 435.465 / 435.565
PCSat 18 Apr 14:06:20 14:09:30 15° 334° (NNW) 14:12:33 145.827
50 SAT 18 Apr 14:06:40 14:08:59 14° 298° (WNW) 14:11:08 437.505
BEESAT 2 18 Apr 14:50:34 14:54:38 55° 238° (WSW) 14:58:37 435.950
BEESAT 3 18 Apr 14:59:52 15:03:42 38° 241° (WSW) 15:07:28 437.485
AIST 2 18 Apr 15:00:47 15:05:04 69° 51° (NE) 15:09:15 435.215
ITUPSAT 1 18 Apr 15:01:14 15:05:42 39° 97° (E) 15:10:10 437.325
JAS-2 18 Apr 15:11:24 15:17:20 25° 56° (NE) 15:23:24 435.910
SO-50 18 Apr 15:13:00 15:17:42 89° 127° (SE) 15:22:35 436.795
Cosmos 2504 18 Apr 15:16:55 15:25:38 69° 94° (E) 15:34:26 435.465 / 435.565
YUBILEINY 18 Apr 15:17:18 15:23:42 21° 306° (NW) 15:29:47 435.215
AIST 1 18 Apr 15:18:44 15:20:13 11° 276° (W) 15:21:28
Gurwin Techsat 1B 18 Apr 15:18:46 15:24:06 89° 255° (WSW) 15:29:28 435.225
Oscar 19 18 Apr 15:21:26 15:25:45 26° 268° (W) 15:30:01 437.125/150
ISS 18 Apr 15:28:25 15:30:31 16° 137° (SE) 15:32:41 145.825
RS-15 18 Apr 15:32:53 15:41:23 29° 105° (ESE) 15:50:22 29.354- 29.394
AO-7 18 Apr 15:35:41 15:43:17 43° 58° (ENE) 15:50:59 29.400- 29.500
SPROUT 18 Apr 15:36:40 15:39:12 15° 299° (WNW) 15:41:36 437.525
ITAMSAT 1 18 Apr 15:36:55 15:41:59 53° 260° (W) 15:47:05 435.822/435.867
TISAT 1 18 Apr 15:36:55 15:39:45 17° 297° (WNW) 15:42:29 437.305
BEESAT 18 Apr 15:37:13 15:42:01 86° 106° (ESE) 15:46:48 436.000
SWISSCUBE 18 Apr 15:38:19 15:43:08 86° 284° (WNW) 15:47:53 437.505
STARS 18 Apr 15:46:00 15:48:27 15° 88° (E) 15:51:04 437.465
HORYU 2 18 Apr 15:50:53 15:55:07 43° 69° (ENE) 15:59:25 437.375
KKS-1 18 Apr 16:06:57 16:11:04 36° 96° (E) 16:15:14 437.445
ITUPSAT 1 18 Apr 16:39:23 16:43:29 28° 295° (WNW) 16:47:29 437.325
AIST 2 18 Apr 16:40:37 16:43:11 15° 248° (WSW) 16:45:35 435.215
JAS-2 18 Apr 16:53:43 17:01:34 89° 256° (WSW) 17:09:24 435.910
SO-50 18 Apr 16:55:12 16:58:56 22° 329° (NNW) 17:02:41 436.795
Gurwin Techsat 1B 18 Apr 17:02:22 17:04:58 13° 275° (W) 17:07:17 435.225
ISS 18 Apr 17:03:15 17:06:32 87° 145° (SE) 17:09:48 145.825
Cosmos 2504 18 Apr 17:12:00 17:19:53 33° 296° (WNW) 17:27:35 435.465 / 435.565
MOZHAYETS 4 18 Apr 17:13:21 17:15:39 14° 86° (E) 17:18:09
BEESAT 18 Apr 17:16:38 17:19:16 14° 302° (WNW) 17:21:43 436.000
SWISSCUBE 18 Apr 17:18:01 17:20:20 13° 303° (WNW) 17:22:27 437.505
STARS 18 Apr 17:20:59 17:25:25 65° 287° (WNW) 17:29:48 437.465
AO-7 18 Apr 17:27:57 17:36:01 52° 259° (W) 17:44:04 29.400- 29.500
HORYU 2 18 Apr 17:28:26 17:32:00 22° 268° (W) 17:35:29 437.375
CUTE-I 18 Apr 17:29:12 17:32:20 16° 57° (ENE) 17:35:39 437.470
Cubesat XI-IV 18 Apr 17:35:53 17:39:24 19° 58° (ENE) 17:43:05 437.490
PCSat 18 Apr 17:38:19 17:41:21 15° 26° (NNE) 17:44:29 145.827
GONETS M04 18 Apr 17:38:30 17:46:20 40° 86° (E) 17:54:22
RS-15 18 Apr 17:41:37 17:52:33 86° 308° (NW) 18:03:50 29.354- 29.394
KKS-1 18 Apr 17:43:48 17:47:37 27° 294° (WNW) 17:51:23 437.445
Cosmos 2499 18 Apr 18:16:29 18:18:50 12° 71° (ENE) 18:21:49 435.465 / 435.565
CUSAT 1 18 Apr 18:27:56 18:29:47 15° 83° (E) 18:31:59 437.405
ISS 18 Apr 18:40:03 18:43:08 37° 354° (N) 18:46:14 145.825
SO-50 18 Apr 18:40:15 18:41:19 11° 353° (N) 18:42:20 436.795
JAS-2 18 Apr 18:41:45 18:47:38 22° 275° (W) 18:53:12 435.910
MOZHAYETS 4 18 Apr 18:48:52 18:53:30 73° 286° (WNW) 18:58:05
CUTE-I 18 Apr 19:06:26 19:11:46 88° 249° (WSW) 19:17:09 437.470
PRISM 18 Apr 19:13:34 19:14:14 10° 86° (E) 19:15:08 437.425
Cubesat XI-IV 18 Apr 19:13:37 19:18:58 77° 256° (WSW) 19:24:21 437.490
AUBIESAT-1 18 Apr 19:19:07 19:22:38 23° 96° (E) 19:26:02 437.475
PCSat 18 Apr 19:20:51 19:26:09 50° 49° (NE) 19:31:25 145.827
GONETS M04 18 Apr 19:34:30 19:43:02 53° 288° (WNW) 19:51:37
RS-15 18 Apr 19:56:32 20:06:40 39° 337° (NNW) 20:17:05 29.354- 29.394
DANDE 18 Apr 19:56:48 19:59:44 63° 284° (WNW) 20:03:28 436.750
HO-68 18 Apr 20:00:47 20:06:40 29° 57° (ENE) 20:12:43 435.675
Cosmos 2499 18 Apr 20:01:45 20:10:16 56° 91° (E) 20:18:46 435.465 / 435.565
CUBESAT XI-V 18 Apr 20:02:59 20:07:32 57° 100° (E) 20:12:04 437.345
M-CUBED/EXP-1 PRIME 18 Apr 20:03:20 20:07:56 72° 107° (ESE) 20:12:09 437.505
CUSAT 1 18 Apr 20:09:03 20:12:02 32° 292° (WNW) 20:15:45 437.405
STRAND 1 18 Apr 20:13:40 20:18:21 36° 96° (E) 20:23:04 437.568
ISS 18 Apr 20:16:45 20:19:55 46° 14° (NNE) 20:23:05 145.825
SO-50 18 Apr 20:21:43 20:24:00 13° 17° (NNE) 20:26:23 436.795
BRITE-PL 18 Apr 20:22:23 20:26:01 31° 68° (ENE) 20:29:45 437.365/2234.400
DOVE 4 18 Apr 20:28:04 20:30:47 17° 62° (ENE) 20:33:40 437.250
MOZHAYETS 4 18 Apr 20:28:53 20:29:58 11° 303° (WNW) 20:30:50
CINEMA 3 18 Apr 20:34:55 20:36:15 11° 57° (ENE) 20:37:48 145.822/145.860
COMPASS 1 18 Apr 20:45:33 20:48:39 20° 64° (ENE) 20:51:51 437.405
PRISM 18 Apr 20:46:13 20:50:21 79° 286° (WNW) 20:54:27 437.425
GOMX 1 18 Apr 20:49:58 20:53:48 38° 69° (ENE) 20:57:47 467.674
CUTE-I 18 Apr 20:50:10 20:52:45 13° 275° (W) 20:55:04 437.470
CANX-2 18 Apr 20:52:44 20:56:39 36° 69° (ENE) 21:00:38 2200.000
AUBIESAT-1 18 Apr 20:53:23 20:57:40 42° 297° (WNW) 21:01:38 437.475
SEEDS 18 Apr 20:57:51 21:01:37 31° 68° (ENE) 21:05:26 437.485
Cubesat XI-IV 18 Apr 20:58:28 21:00:07 11° 277° (W) 21:01:26 437.490
CUTE 1.7 + AOD 2 18 Apr 21:02:58 21:07:00 41° 70° (ENE) 21:11:05 437.475
PCSat 18 Apr 21:04:40 21:09:23 30° 249° (WSW) 21:14:00 145.827
VERMONT LUNAR 18 Apr 21:08:42 21:10:25 13° 158° (SSE) 21:12:11 437.305
CUBEBUG 2 18 Apr 21:25:00 21:28:02 19° 63° (ENE) 21:31:15 437.445
ZACube-1 18 Apr 21:25:26 21:27:33 14° 60° (ENE) 21:29:52 437.345
YUBILEINY 18 Apr 21:27:32 21:32:12 16° 49° (NE) 21:37:16 435.215
AAUSAT CUBESAT 2 18 Apr 21:33:38 21:37:43 51° 72° (ENE) 21:41:52 437.432
GONETS M04 18 Apr 21:38:38 21:42:39 13° 315° (NW) 21:46:12
M-CUBED/EXP-1 PRIME 18 Apr 21:39:15 21:42:15 17° 306° (NW) 21:45:00 437.505
CUBESAT XI-V 18 Apr 21:41:20 21:44:37 19° 298° (WNW) 21:47:47 437.345
Oscar 11 18 Apr 21:41:25 21:45:16 32° 68° (ENE) 21:49:12 145.826/435.025
HO-68 18 Apr 21:46:45 21:53:55 70° 256° (WSW) 22:01:09 435.675
STRAND 1 18 Apr 21:52:59 21:57:32 33° 295° (WNW) 22:02:02 437.568
ISS 18 Apr 21:53:10 21:56:20 47° 212° (SSW) 21:59:28 145.825
Cosmos 2499 18 Apr 21:55:31 22:03:49 40° 293° (WNW) 22:11:53 435.465 / 435.565
PHONESAT 2.4 18 Apr 21:57:47 21:59:33 13° 157° (SSE) 22:01:22 2401.200-2431.200
DELFI C3 18 Apr 21:59:57 22:03:41 36° 70° (ENE) 22:07:29 145.870
BRITE-PL 18 Apr 22:01:09 22:04:40 26° 267° (W) 22:08:09 437.365/2234.400
SO-50 18 Apr 22:01:27 22:06:00 35° 40° (NE) 22:10:34 436.795
DX 1 18 Apr 22:02:16 22:05:33 22° 64° (ENE) 22:08:57 434.975-435.025
DOVE 4 18 Apr 22:04:06 22:08:11 54° 261° (W) 22:12:26 437.250
UWE-3 18 Apr 22:06:39 22:10:38 39° 69° (ENE) 22:14:46 435.000/436.395/437.385
CINEMA 3 18 Apr 22:08:31 22:12:45 87° 79° (E) 22:17:12 145.822/145.860
RS-15 18 Apr 22:13:03 22:22:53 33° 11° (N) 22:33:09 29.354- 29.394
COMPASS 1 18 Apr 22:20:00 22:24:04 45° 262° (W) 22:28:11 437.405
HUMSAT D 18 Apr 22:22:29 22:25:51 24° 66° (ENE) 22:29:20 437.325/437.525
GOMX 1 18 Apr 22:28:58 22:32:12 21° 269° (W) 22:35:24 467.674
CANX-2 18 Apr 22:29:07 22:32:42 25° 267° (W) 22:36:14 2200.000
SEEDS 18 Apr 22:33:44 22:37:26 28° 266° (W) 22:41:08 437.485
FUNcube-1 18 Apr 22:36:57 22:41:10 63° 73° (ENE) 22:45:32 145.935
VELOX 1 18 Apr 22:38:12 22:41:41 24° 64° (ENE) 22:45:14 145.980
CUTE 1.7 + AOD 2 18 Apr 22:39:46 22:43:07 21° 269° (W) 22:46:25 437.475
VERMONT LUNAR 18 Apr 22:44:30 22:47:20 25° 174° (S) 22:50:11 437.305
AISAT 18 Apr 22:52:22 22:56:16 32° 67° (ENE) 23:00:14 437.250
UKube-1 18 Apr 22:55:16 22:59:34 67° 72° (ENE) 23:03:52 .
ZACube-1 18 Apr 22:59:04 23:03:21 77° 258° (WSW) 23:07:46 437.345
CUBEBUG 2 18 Apr 23:00:14 23:04:23 50° 261° (W) 23:08:44 437.445
ESTCUBE 1 18 Apr 23:04:30 23:08:07 25° 65° (ENE) 23:11:50 437.505/2401.250
CUBEBUG 1 18 Apr 23:06:40 23:09:58 22° 64° (ENE) 23:13:22 437.445
AAUSAT CUBESAT 2 18 Apr 23:10:53 23:13:43 17° 271° (W) 23:16:25 437.432
Cosmos 2491 18 Apr 23:14:57 23:21:27 25° 80° (E) 23:28:16 435.465 / 435.565
Oscar 11 18 Apr 23:17:41 23:21:29 28° 266° (W) 23:25:15 145.826/435.025
50 SAT 18 Apr 23:18:54 23:22:48 57° 73° (ENE) 23:26:47 437.505
YUBILEINY 18 Apr 23:22:41 23:31:25 62° 75° (ENE) 23:40:03 435.215
SPROUT 18 Apr 23:24:54 23:25:10 10° 58° (ENE) 23:25:38 437.525
PHONESAT 2.4 18 Apr 23:34:08 23:37:10 26° 173° (S) 23:40:11 2401.200-2431.200
DELFI C3 18 Apr 23:35:41 23:38:58 22° 268° (W) 23:42:11 145.870
DX 1 18 Apr 23:37:26 23:41:35 43° 261° (W) 23:45:44 434.975-435.025
TIGRISAT 18 Apr 23:38:16 23:42:15 27° 93° (E) 23:46:15 435.000
POPSAT HIP 1 18 Apr 23:38:18 23:40:06 13° 87° (E) 23:42:06 437.405
NANOSAT C BR1 18 Apr 23:38:42 23:40:30 13° 87° (E) 23:42:30 145.865
UNISAT 6 18 Apr 23:38:55 23:42:57 28° 93° (E) 23:47:01 437.425
HO-68 18 Apr 23:39:41 23:43:11 13° 278° (W) 23:46:12 435.675
SO-50 18 Apr 23:41:58 23:46:42 45° 240° (WSW) 23:51:21 436.795
UWE-3 18 Apr 23:43:53 23:47:22 23° 269° (W) 23:50:50 435.000/436.395/437.385
HUMSAT D 18 Apr 23:57:34 00:01:27 36° 264° (W) 00:05:25 437.325/437.525
O/OREOS (USA 219) 19 Apr 00:01:36 00:04:46 19° 102° (ESE) 00:08:05 437.305
POLYITAN 1 19 Apr 00:03:08 00:06:34 23° 93° (E) 00:10:04 437.675
DUCHIFAT 1 19 Apr 00:13:41 00:17:22 28° 95° (E) 00:21:05 145.980
VELOX 1 19 Apr 00:13:53 00:18:03 41° 262° (W) 00:22:14 145.980
FUNcube-1 19 Apr 00:15:35 00:18:03 14° 273° (W) 00:20:22 145.935
ANTELSAT 19 Apr 00:20:14 00:24:59 68° 102° (ESE) 00:29:40 437.575/2403.000
VERMONT LUNAR 19 Apr 00:21:40 00:24:22 22° 191° (S) 00:27:02 437.305
QB50P1 19 Apr 00:25:53 00:29:54 38° 97° (E) 00:33:55 145.935-145.965
RS-15 19 Apr 00:26:52 00:38:08 61° 42° (NE) 00:49:56 29.354- 29.394
AISAT 19 Apr 00:29:03 00:32:54 28° 265° (W) 00:36:43 437.250
UKube-1 19 Apr 00:33:55 00:36:14 14° 272° (W) 00:38:22 .
ITUPSAT 1 19 Apr 00:38:10 00:38:37 10° 55° (NE) 00:39:19 437.325
ESTCUBE 1 19 Apr 00:40:32 00:44:50 41° 263° (W) 00:49:07 437.505/2401.250
CUBEBUG 1 19 Apr 00:41:59 00:46:08 42° 262° (W) 00:50:16 437.445
BUGSAT 1 19 Apr 00:43:05 00:46:57 40° 98° (E) 00:50:52 437.445
QB50P2 19 Apr 00:48:58 00:53:16 68° 102° (ESE) 00:57:34 145.880/145.840
TISAT 1 19 Apr 00:55:16 00:59:24 62° 72° (ENE) 01:03:33 437.305
50 SAT 19 Apr 00:55:53 00:58:05 14° 272° (W) 01:00:08 437.505
SPROUT 19 Apr 00:56:18 01:00:34 78° 75° (ENE) 01:04:52 437.525
Cosmos 2504 19 Apr 01:07:07 01:14:17 31° 62° (ENE) 01:21:10 435.465 / 435.565
Cosmos 2491 19 Apr 01:08:43 01:17:28 79° 281° (WNW) 01:26:17 435.465 / 435.565
BEESAT 19 Apr 01:10:41 01:14:04 20° 61° (ENE) 01:17:34 436.000
SWISSCUBE 19 Apr 01:11:38 01:15:13 22° 62° (ENE) 01:18:54 437.505
PHONESAT 2.4 19 Apr 01:11:57 01:14:55 24° 190° (S) 01:17:52 2401.200-2431.200
POPSAT HIP 1 19 Apr 01:12:16 01:16:33 72° 286° (WNW) 01:20:49 437.405
NANOSAT C BR1 19 Apr 01:12:39 01:16:55 71° 286° (WNW) 01:21:10 145.865
TIGRISAT 19 Apr 01:14:41 01:19:07 40° 291° (WNW) 01:23:29 435.000
UNISAT 6 19 Apr 01:15:27 01:19:50 38° 291° (WNW) 01:24:11 437.425
YUBILEINY 19 Apr 01:20:11 01:27:48 33° 276° (W) 01:35:10 435.215
POLYITAN 1 19 Apr 01:38:37 01:42:38 38° 291° (WNW) 01:46:37 437.675
O/OREOS (USA 219) 19 Apr 01:39:21 01:43:51 54° 300° (WNW) 01:48:22 437.305
DUCHIFAT 1 19 Apr 01:49:24 01:53:13 31° 292° (WNW) 01:56:58 145.980
Oscar 19 19 Apr 01:51:24 01:53:32 13° 85° (E) 01:55:56 437.125/150
ANTELSAT 19 Apr 01:58:07 02:01:17 18° 299° (WNW) 02:04:20 437.575/2403.000
QB50P1 19 Apr 02:02:08 02:05:36 24° 295° (WNW) 02:09:01 145.935-145.965
ITUPSAT 1 19 Apr 02:10:55 02:15:40 64° 73° (ENE) 02:20:28 437.325
AIST 1 19 Apr 02:11:37 02:15:34 36° 92° (E) 02:19:33
BUGSAT 1 19 Apr 02:19:05 02:22:14 21° 295° (WNW) 02:25:21 437.445
QB50P2 19 Apr 02:26:12 02:28:43 15° 299° (WNW) 02:31:05 145.880/145.840
TISAT 1 19 Apr 02:33:24 02:35:40 14° 272° (W) 02:37:46 437.305
SPROUT 19 Apr 02:35:45 02:37:18 11° 274° (W) 02:38:38 437.525
RS-15 19 Apr 02:39:36 02:50:35 52° 246° (WSW) 03:01:54 29.354- 29.394
STARS 19 Apr 02:45:55 02:49:05 20° 63° (ENE) 02:52:22 437.465
BEESAT 19 Apr 02:46:48 02:51:33 59° 259° (W) 02:56:18 436.000
SWISSCUBE 19 Apr 02:48:03 02:52:46 53° 260° (W) 02:57:29 437.505
PHONESAT 2.4 19 Apr 02:51:15 02:52:30 11° 206° (SSW) 02:53:40 2401.200-2431.200
Cosmos 2504 19 Apr 03:00:16 03:08:33 66° 267° (W) 03:16:11 435.465 / 435.565
KKS-1 19 Apr 03:08:03 03:12:17 48° 70° (ENE) 03:16:36 437.445
Cosmos 2491 19 Apr 03:09:51 03:16:07 20° 306° (NW) 03:22:05 435.465 / 435.565
O/OREOS (USA 219) 19 Apr 03:23:54 03:24:26 10° 322° (NW) 03:24:48 437.305
Oscar 19 19 Apr 03:28:30 03:33:45 88° 99° (E) 03:38:59 437.125/150
Gurwin Techsat 1B 19 Apr 03:32:12 03:36:46 29° 93° (E) 03:41:23 435.225
GONETS M04 19 Apr 03:44:18 03:51:05 25° 57° (ENE) 03:58:08
ITAMSAT 1 19 Apr 03:46:28 03:51:24 43° 98° (E) 03:56:19 435.822/435.867
AIST 1 19 Apr 03:49:50 03:53:22 23° 291° (WNW) 03:56:49
ITUPSAT 1 19 Apr 03:50:54 03:54:05 17° 271° (W) 03:57:06 437.325
JAS-2 19 Apr 04:04:46 04:06:19 11° 76° (ENE) 04:08:17 435.910
MOZHAYETS 4 19 Apr 04:18:04 04:21:25 20° 63° (ENE) 04:24:53
STARS 19 Apr 04:21:00 04:25:15 49° 261° (W) 04:29:33 437.465
KKS-1 19 Apr 04:45:56 04:49:14 20° 269° (W) 04:52:27 437.445
DANDE 19 Apr 04:48:00 04:52:58 24° 65° (ENE) 04:59:01 436.750
BEESAT 2 19 Apr 04:49:31 04:51:17 13° 111° (ESE) 04:53:15 435.950
Cosmos 2504 19 Apr 04:56:36 05:00:22 13° 288° (WNW) 05:03:33 435.465 / 435.565
BEESAT 3 19 Apr 04:56:44 04:59:27 18° 113° (ESE) 05:02:20 437.485
CUSAT 1 19 Apr 04:57:12 05:03:04 34° 68° (ENE) 05:10:08 437.405
RS-15 19 Apr 04:58:06 05:00:37 10° 266° (W) 05:01:53 29.354- 29.394
Oscar 19 19 Apr 05:09:19 05:12:29 16° 303° (WNW) 05:15:28 437.125/150
Gurwin Techsat 1B 19 Apr 05:11:54 05:16:56 44° 292° (WNW) 05:21:55 435.225
HORYU 2 19 Apr 05:15:20 05:19:48 56° 101° (E) 05:24:14 437.375
M-CUBED/EXP-1 PRIME 19 Apr 05:20:28 05:24:10 23° 57° (ENE) 05:28:01 437.505
AO-7 19 Apr 05:25:31 05:33:26 46° 99° (E) 05:41:23 29.400- 29.500
ITAMSAT 1 19 Apr 05:26:18 05:30:46 29° 296° (WNW) 05:35:10 435.822/435.867
CUBESAT XI-V 19 Apr 05:35:40 05:37:09 12° 58° (ENE) 05:38:49 437.345
GONETS M04 19 Apr 05:40:24 05:49:21 88° 260° (W) 05:58:12
JAS-2 19 Apr 05:46:19 05:53:14 66° 100° (E) 05:59:18 435.910
Cosmos 2499 19 Apr 05:50:24 05:56:38 24° 58° (ENE) 06:02:44 435.465 / 435.565
MOZHAYETS 4 19 Apr 05:53:44 05:58:19 54° 261° (W) 06:02:54
STRAND 1 19 Apr 05:57:16 05:59:11 12° 55° (NE) 06:01:19 437.568
PRISM 19 Apr 06:06:14 06:08:22 14° 60° (ENE) 06:10:38 437.425
AUBIESAT-1 19 Apr 06:08:44 06:13:20 52° 65° (ENE) 06:18:02 437.475
BEESAT 2 19 Apr 06:24:45 06:28:53 80° 307° (NW) 06:33:05 435.950
DANDE 19 Apr 06:30:19 06:36:42 79° 261° (W) 06:44:44 436.750
BEESAT 3 19 Apr 06:33:04 06:37:08 58° 311° (NW) 06:41:13 437.485
CUSAT 1 19 Apr 06:39:33 06:46:05 58° 264° (W) 06:53:54 437.405
AIST 2 19 Apr 06:39:39 06:43:48 53° 122° (ESE) 06:48:00 435.215
HORYU 2 19 Apr 06:52:52 06:56:05 19° 298° (WNW) 06:59:11 437.375
M-CUBED/EXP-1 PRIME 19 Apr 06:54:00 06:58:40 57° 255° (WSW) 07:03:29 437.505
CUBESAT XI-V 19 Apr 07:09:14 07:13:54 79° 75° (ENE) 07:18:34 437.345
AO-7 19 Apr 07:18:27 07:26:21 49° 300° (WNW) 07:34:10 29.400- 29.500
CUTE-I 19 Apr 07:20:46 07:25:19 29° 94° (E) 07:29:55 437.470
Cubesat XI-IV 19 Apr 07:27:59 07:32:45 33° 95° (E) 07:37:34 437.490
JAS-2 19 Apr 07:32:00 07:37:45 28° 302° (WNW) 07:42:52 435.910
STRAND 1 19 Apr 07:32:30 07:37:36 72° 72° (ENE) 07:42:43 437.568
GONETS M04 19 Apr 07:38:51 07:45:04 21° 283° (WNW) 07:50:53
PRISM 19 Apr 07:39:10 07:43:21 71° 257° (WSW) 07:47:33 437.425
Cosmos 2499 19 Apr 07:42:51 07:51:04 83° 263° (W) 07:58:35 435.465 / 435.565
AUBIESAT-1 19 Apr 07:44:37 07:48:24 23° 264° (W) 07:52:08 437.475
BEESAT 2 19 Apr 08:04:57 08:07:42 17° 329° (NNW) 08:10:23 435.950
BEESAT 3 19 Apr 08:13:52 08:16:02 14° 333° (NNW) 08:18:09 437.485
DANDE 19 Apr 08:15:23 08:19:34 17° 274° (W) 08:23:50 436.750
AIST 2 19 Apr 08:19:02 08:22:40 26° 322° (NW) 08:26:18 435.215
CUSAT 1 19 Apr 08:25:41 08:28:07 12° 278° (W) 08:30:07 437.405
O/OREOS (USA 219) 19 Apr 08:29:44 08:31:01 11° 39° (NE) 08:32:28 437.305
CUBESAT XI-V 19 Apr 08:49:48 08:52:01 13° 274° (W) 08:54:00 437.345
GOMX 1 19 Apr 08:50:08 08:51:06 11° 84° (E) 08:52:23 467.674
CUTE-I 19 Apr 09:00:34 09:05:36 44° 292° (WNW) 09:10:35 437.470
Cubesat XI-IV 19 Apr 09:08:02 09:12:56 38° 294° (WNW) 09:17:48 437.490
HO-68 19 Apr 09:12:08 09:17:01 20° 87° (E) 09:22:10 435.675
AO-7 19 Apr 09:13:04 09:17:19 15° 322° (NW) 09:21:14 29.400- 29.500
STRAND 1 19 Apr 09:14:07 09:17:25 17° 272° (W) 09:20:32 437.568
Cosmos 2491 19 Apr 09:19:55 09:24:42 16° 49° (NE) 09:29:56 435.465 / 435.565
Cosmos 2499 19 Apr 09:37:55 09:42:56 17° 284° (WNW) 09:47:22 435.465 / 435.565
ANTELSAT 19 Apr 09:48:52 09:50:34 12° 57° (ENE) 09:52:29 437.575/2403.000
DOVE 4 19 Apr 09:59:13 10:03:38 33° 95° (E) 10:08:17 437.250
BRITE-PL 19 Apr 10:00:30 10:05:16 69° 101° (ESE) 10:10:25 437.365/2234.400
CINEMA 3 19 Apr 10:00:39 10:04:02 19° 89° (E) 10:07:38 145.822/145.860
COMPASS 1 19 Apr 10:00:50 10:04:12 23° 92° (E) 10:07:38 437.405
PCSat 19 Apr 10:06:53 10:10:55 22° 109° (ESE) 10:15:07 145.827
O/OREOS (USA 219) 19 Apr 10:06:59 10:11:30 62° 62° (ENE) 10:15:57 437.305
CANX-2 19 Apr 10:10:29 10:14:40 46° 98° (E) 10:18:47 2200.000
SEEDS 19 Apr 10:14:28 10:18:29 38° 97° (E) 10:22:28 437.485
CUTE 1.7 + AOD 2 19 Apr 10:20:44 10:24:58 53° 99° (E) 10:29:10 437.475
FUNcube-1 19 Apr 10:24:48 10:25:45 11° 84° (E) 10:26:59 145.935
GOMX 1 19 Apr 10:25:09 10:30:01 79° 102° (ESE) 10:35:14 467.674
POPSAT HIP 1 19 Apr 10:34:19 10:36:44 15° 61° (ENE) 10:39:19 437.405
NANOSAT C BR1 19 Apr 10:34:29 10:36:53 15° 62° (ENE) 10:39:27 145.865
YUBILEINY 19 Apr 10:36:58 10:40:26 13° 72° (ENE) 10:44:31 435.215
TIGRISAT 19 Apr 10:40:05 10:44:03 33° 67° (ENE) 10:48:11 435.000
UNISAT 6 19 Apr 10:40:57 10:45:00 34° 67° (ENE) 10:49:10 437.425
ZACube-1 19 Apr 10:45:25 10:48:32 18° 89° (E) 10:51:47 437.345
CUBEBUG 2 19 Apr 10:48:07 10:52:12 29° 94° (E) 10:56:21 437.445
AAUSAT CUBESAT 2 19 Apr 10:49:03 10:53:16 64° 101° (E) 10:57:26 437.432
HO-68 19 Apr 10:58:32 11:05:47 87° 289° (WNW) 11:12:59 435.675
POLYITAN 1 19 Apr 10:59:22 11:02:52 27° 66° (ENE) 11:06:29 437.675
Oscar 11 19 Apr 11:01:17 11:05:25 41° 97° (E) 11:09:33 145.826/435.025
DUCHIFAT 1 19 Apr 11:09:13 11:12:54 31° 68° (ENE) 11:16:40 145.980
DELFI C3 19 Apr 11:11:16 11:15:06 39° 97° (E) 11:18:55 145.870
Cosmos 2491 19 Apr 11:15:10 11:23:55 63° 75° (ENE) 11:32:41 435.465 / 435.565
QB50P1 19 Apr 11:21:39 11:25:37 43° 70° (ENE) 11:29:38 145.935-145.965
ANTELSAT 19 Apr 11:22:10 11:26:39 85° 75° (ENE) 11:31:17 437.575/2403.000
DX 1 19 Apr 11:22:52 11:26:26 25° 94° (E) 11:30:03 434.975-435.025
UWE-3 19 Apr 11:29:17 11:33:54 58° 100° (E) 11:38:33 435.000/436.395/437.385
COMPASS 1 19 Apr 11:36:07 11:40:02 37° 291° (WNW) 11:43:54 437.405
BUGSAT 1 19 Apr 11:36:14 11:40:02 42° 70° (ENE) 11:43:52 437.445
CINEMA 3 19 Apr 11:36:51 11:41:38 60° 287° (WNW) 11:46:32 145.822/145.860
DOVE 4 19 Apr 11:36:58 11:41:24 35° 292° (WNW) 11:46:00 437.250
HUMSAT D 19 Apr 11:38:29 11:42:17 29° 94° (E) 11:46:06 437.325/437.525
BRITE-PL 19 Apr 11:40:12 11:43:26 18° 297° (WNW) 11:46:40 437.365/2234.400
QB50P2 19 Apr 11:44:48 11:49:01 77° 75° (ENE) 11:53:16 145.880/145.840
CANX-2 19 Apr 11:47:04 11:50:19 21° 296° (WNW) 11:53:27 2200.000
O/OREOS (USA 219) 19 Apr 11:47:39 11:50:27 16° 259° (W) 11:53:05 437.305
PCSat 19 Apr 11:48:32 11:53:55 65° 307° (NW) 11:59:22 145.827
SEEDS 19 Apr 11:50:40 11:54:07 23° 294° (WNW) 11:57:27 437.485
CUTE 1.7 + AOD 2 19 Apr 11:57:32 12:00:32 18° 297° (WNW) 12:03:24 437.475
FUNcube-1 19 Apr 11:58:14 12:02:52 88° 103° (ESE) 12:07:28 145.935
VELOX 1 19 Apr 12:01:17 12:05:09 29° 95° (E) 12:09:02 145.980
GOMX 1 19 Apr 12:04:40 12:07:43 16° 298° (WNW) 12:10:41 467.674
POPSAT HIP 1 19 Apr 12:08:01 12:12:12 63° 259° (WSW) 12:16:24 437.405
NANOSAT C BR1 19 Apr 12:08:09 12:12:19 63° 259° (WSW) 12:16:31 145.865
UKube-1 19 Apr 12:15:42 12:20:04 80° 104° (ESE) 12:24:24 .
AISAT 19 Apr 12:15:59 12:20:13 42° 98° (E) 12:24:27 437.250
AIST 1 19 Apr 12:16:35 12:18:40 14° 63° (ENE) 12:20:55
TIGRISAT 19 Apr 12:16:54 12:20:50 30° 266° (W) 12:24:50 435.000
UNISAT 6 19 Apr 12:17:55 12:21:50 28° 267° (W) 12:25:47 437.425
ZACube-1 19 Apr 12:20:46 12:25:17 56° 288° (WNW) 12:29:47 437.345
CUBEBUG 2 19 Apr 12:24:35 12:28:58 37° 291° (WNW) 12:33:20 437.445
AAUSAT CUBESAT 2 19 Apr 12:25:56 12:28:27 15° 298° (WNW) 12:30:50 437.432
YUBILEINY 19 Apr 12:26:59 12:35:37 64° 93° (E) 12:44:20 435.215
CUBEBUG 1 19 Apr 12:27:49 12:31:31 27° 94° (E) 12:35:15 437.445
50 SAT 19 Apr 12:27:49 12:31:52 60° 101° (E) 12:35:52 437.505
ESTCUBE 1 19 Apr 12:30:04 12:34:06 32° 95° (E) 12:38:09 437.505/2401.250
POLYITAN 1 19 Apr 12:34:53 12:38:43 33° 264° (W) 12:42:33 437.675
Oscar 11 19 Apr 12:37:55 12:41:24 23° 295° (WNW) 12:44:47 145.826/435.025
SPROUT 19 Apr 12:42:15 12:43:23 11° 86° (E) 12:44:46 437.525
DUCHIFAT 1 19 Apr 12:45:10 12:48:46 27° 266° (W) 12:52:21 145.980
DELFI C3 19 Apr 12:46:55 12:50:02 21° 295° (WNW) 12:53:04 145.870
HO-68 19 Apr 12:47:22 12:52:41 22° 308° (NW) 12:57:47 435.675
QB50P1 19 Apr 12:58:34 13:01:44 20° 269° (W) 13:04:49 145.935-145.965
DX 1 19 Apr 12:58:46 13:02:48 37° 292° (WNW) 13:06:47 434.975-435.025
ANTELSAT 19 Apr 13:02:34 13:04:13 11° 275° (W) 13:05:37 437.575/2403.000
BEESAT 2 19 Apr 13:03:44 13:07:17 26° 39° (NE) 13:10:48 435.950
UWE-3 19 Apr 13:06:41 13:10:04 20° 297° (WNW) 13:13:22 435.000/436.395/437.385
Oscar 19 19 Apr 13:10:27 13:14:40 27° 63° (ENE) 13:18:58 437.125/150
BEESAT 3 19 Apr 13:11:27 13:15:13 33° 43° (NE) 13:18:57 437.485
Cosmos 2491 19 Apr 13:12:42 13:20:21 33° 276° (W) 13:27:48 435.465 / 435.565
BUGSAT 1 19 Apr 13:12:51 13:15:46 19° 269° (W) 13:18:35 437.445
HUMSAT D 19 Apr 13:14:11 13:18:03 31° 292° (WNW) 13:21:52 437.325/437.525
AIST 2 19 Apr 13:20:44 13:23:44 18° 32° (NNE) 13:26:46 435.215
Gurwin Techsat 1B 19 Apr 13:21:05 13:22:22 11° 53° (NE) 13:23:54 435.225
QB50P2 19 Apr 13:24:02 13:25:33 11° 274° (W) 13:26:51 145.880/145.840
ITAMSAT 1 19 Apr 13:31:04 13:33:52 15° 57° (ENE) 13:36:51 435.822/435.867
PCSat 19 Apr 13:34:47 13:38:27 18° 330° (NNW) 13:42:02 145.827
FUNcube-1 19 Apr 13:36:18 13:38:36 13° 300° (WNW) 13:40:42 145.935
VELOX 1 19 Apr 13:37:45 13:41:44 32° 293° (WNW) 13:45:39 145.980
